FW1542 Weather Reports


Display with metric or nautical units.
time (UTC)temp
F
wind
direction
speed
MPH
gust
MPH
rain 1hr
in
rain 24hr
in
rain mn
in
humidity
%
barometer
mb
20260503184544 76 88 5.0 10.0 0.00 0.00 0.00 49 1020.6
20260503184506 76 128 6.0 10.0 0.00 0.00 0.00 48 1023.9
20260503183042 76 128 4.0 15.0 0.00 0.00 0.00 51 1020.9
20260503183006 76 150 5.0 15.0 0.00 0.00 0.00 50 1024.2
20260503181550 76 119 5.0 12.0 0.00 0.00 0.00 49 1021.3
20260503181506 76 58 5.0 9.0 0.00 0.00 0.00 50 1024.6
20260503180049 76 279 2.0 10.0 0.00 0.00 0.00 49 1021.5
20260503180005 76 205 2.0 9.0 0.00 0.00 0.00 50 1024.8
20260503174548 76 170 3.0 9.0 0.00 0.00 0.00 49 1021.9
20260503174501 76 140 3.0 9.0 0.00 0.00 0.00 49 1025.2
20260503173105 75 180 8.0 14.0 0.00 0.00 0.00 52 1025.3
20260503173045 75 121 8.0 14.0 0.00 0.00 0.00 51 1022.1
20260503171559 75 132 6.0 11.0 0.00 0.00 0.00 51 1025.7
20260503171545 75 146 5.0 11.0 0.00 0.00 0.00 51 1022.4
20260503170117 75 126 4.0 10.0 0.00 0.00 0.00 53 1025.8
20260503170103 75 177 3.0 10.0 0.00 0.00 0.00 52 1022.6
20260503160105 73 181 3.0 9.0 0.00 0.00 0.00 56 1026.3
20260503081550 53 10 0.0 1.0 0.00 0.00 0.00 88 1024.3
20260503081543 53 0 0.0 1.0 0.00 0.00 0.00 87 1020.9
20260503071549 55 0 0.0 3.0 0.00 0.00 0.00 86 1021.4
20260503071539 55 10 0.0 2.0 0.00 0.00 0.00 86 1024.9
20260503054604 57 0 0.0 0.0 0.00 0.00 0.00 82 1021.6
20260503054543 57 33 0.0 0.0 0.00 0.00 0.00 83 1025.2
20260503053042 58 0 0.0 2.0 0.00 0.00 0.00 81 1021.6
20260503053031 58 33 0.0 0.0 0.00 0.00 0.00 81 1024.9
20260503051542 58 33 1.0 3.0 0.00 0.00 0.00 79 1021.6
20260503051525 58 33 1.0 3.0 0.00 0.00 0.00 80 1025.0
20260503050049 58 86 1.0 2.0 0.00 0.00 0.00 79 1021.4
20260503050022 58 86 1.0 2.0 0.00 0.00 0.00 80 1024.8
20260503044548 59 87 0.0 2.0 0.00 0.00 0.00 77 1021.5
20260503044527 59 87 1.0 2.0 0.00 0.00 0.00 78 1024.9
20260503043053 59 88 1.0 2.0 0.00 0.00 0.00 76 1021.3
20260503043021 59 88 1.0 2.0 0.00 0.00 0.00 76 1024.7
20260503041550 60 0 0.0 0.0 0.00 0.00 0.00 74 1021.6
20260503041521 60 88 0.0 0.0 0.00 0.00 0.00 74 1025.0
20260503040046 60 0 0.0 2.0 0.00 0.00 0.00 71 1021.5
20260503040019 60 88 0.0 2.0 0.00 0.00 0.00 72 1024.8
20260503034547 60 88 2.0 3.0 0.00 0.00 0.00 71 1021.2
20260503034519 60 88 2.0 3.0 0.00 0.00 0.00 71 1024.6
20260503033046 61 88 1.0 2.0 0.00 0.00 0.00 68 1021.1
20260503033018 61 88 1.0 2.0 0.00 0.00 0.00 69 1024.5
20260503031544 62 88 1.0 3.0 0.00 0.00 0.00 66 1021.1
20260503031518 62 88 1.0 2.0 0.00 0.00 0.00 66 1024.3
20260503030041 63 88 1.0 2.0 0.00 0.00 0.00 63 1020.8
20260503030016 63 88 1.0 2.0 0.00 0.00 0.00 64 1024.3
20260503024543 64 88 1.0 3.0 0.00 0.00 0.00 61 1020.6
20260503024518 64 88 1.0 3.0 0.00 0.00 0.00 61 1024.1
20260503023046 65 89 1.0 4.0 0.00 0.00 0.00 59 1020.5
20260503023016 65 89 2.0 4.0 0.00 0.00 0.00 59 1023.9
20260503021543 66 105 1.0 4.0 0.00 0.00 0.00 59 1020.4
20260503021519 66 105 1.0 4.0 0.00 0.00 0.00 59 1023.8
20260503020045 66 91 2.0 6.0 0.00 0.00 0.00 57 1020.0
20260503020015 66 92 2.0 6.0 0.00 0.00 0.00 58 1023.4
20260503014551 67 102 3.0 8.0 0.00 0.00 0.00 56 1019.6
20260503014515 67 103 2.0 8.0 0.00 0.00 0.00 56 1023.2
20260503013044 68 42 1.0 3.0 0.00 0.00 0.00 53 1019.5
20260503013029 68 42 1.0 3.0 0.00 0.00 0.00 53 1023.0
20260503011542 70 0 1.0 4.0 0.00 0.00 0.00 50 1019.5
20260503011514 70 42 1.0 3.0 0.00 0.00 0.00 51 1022.9
20260503010051 71 0 2.0 6.0 0.00 0.00 0.00 49 1019.2
20260503010014 71 42 2.0 6.0 0.00 0.00 0.00 49 1022.8
20260503004548 71 52 2.0 8.0 0.00 0.00 0.00 47 1019.2
20260503004513 71 53 2.0 5.0 0.00 0.00 0.00 48 1022.7
20260503003047 72 59 2.0 7.0 0.00 0.00 0.00 46 1019.1
20260503003013 72 53 2.0 6.0 0.00 0.00 0.00 47 1022.5
20260503001549 73 37 1.0 10.0 0.00 0.00 0.00 47 1019.0
20260503001512 73 57 1.0 7.0 0.00 0.00 0.00 47 1022.3
20260503000045 73 67 3.0 10.0 0.00 0.00 0.00 46 1019.0
20260503000011 73 55 4.0 10.0 0.00 0.00 0.00 47 1022.6
20260502234553 73 46 2.0 10.0 0.00 0.00 0.00 45 1019.0
20260502234511 73 14 1.0 9.0 0.00 0.00 0.00 46 1022.6
20260502233043 74 342 2.0 9.0 0.00 0.00 0.00 45 1018.9
20260502233026 74 355 2.0 9.0 0.00 0.00 0.00 46 1022.6
20260502231546 74 67 3.0 12.0 0.00 0.00 0.00 44 1019.0
20260502231510 74 63 3.0 12.0 0.00 0.00 0.00 45 1022.5
20260502230047 74 327 3.0 12.0 0.00 0.00 0.00 45 1019.1
20260502230009 74 324 2.0 12.0 0.00 0.00 0.00 45 1022.6
20260502224547 74 32 4.0 11.0 0.00 0.00 0.00 47 1019.1
20260502224507 74 54 3.0 11.0 0.00 0.00 0.00 45 1022.5
20260502223048 75 119 3.0 10.0 0.00 0.00 0.00 46 1018.9
20260502223007 75 76 3.0 10.0 0.00 0.00 0.00 47 1022.5
20260502221543 75 35 3.0 12.0 0.00 0.00 0.00 44 1019.0
20260502221513 75 9 3.0 12.0 0.00 0.00 0.00 45 1022.6
20260502220047 75 342 4.0 12.0 0.00 0.00 0.00 44 1018.9
20260502220007 75 342 3.0 11.0 0.00 0.00 0.00 44 1022.6
20260502214555 75 9 3.0 10.0 0.00 0.00 0.00 44 1019.2
20260502214505 75 49 4.0 10.0 0.00 0.00 0.00 45 1022.7
20260502213045 75 49 7.0 16.0 0.00 0.00 0.00 43 1019.3
20260502213003 75 61 7.0 16.0 0.00 0.00 0.00 43 1022.9
20260502211545 74 82 3.0 12.0 0.00 0.00 0.00 47 1019.5
20260502211502 74 90 3.0 12.0 0.00 0.00 0.00 47 1023.0
20260502210053 74 112 8.0 13.0 0.00 0.00 0.00 44 1019.7
20260502210001 74 66 7.0 13.0 0.00 0.00 0.00 45 1023.3
20260502204601 74 77 5.0 15.0 0.00 0.00 0.00 47 1023.4
20260502204553 74 73 5.0 15.0 0.00 0.00 0.00 46 1020.0
20260502203059 74 44 5.0 13.0 0.00 0.00 0.00 49 1023.6
20260502203050 74 26 5.0 13.0 0.00 0.00 0.00 49 1020.2
20260502201600 74 84 6.0 16.0 0.00 0.00 0.00 51 1023.8
20260502201546 74 82 5.0 15.0 0.00 0.00 0.00 51 1020.2
20260502200100 74 112 6.0 17.0 0.00 0.00 0.00 48 1023.9
20260502200047 74 46 4.0 17.0 0.00 0.00 0.00 46 1020.3
20260502194603 75 57 4.0 12.0 0.00 0.00 0.00 50 1024.1
20260502194544 75 332 4.0 15.0 0.00 0.00 0.00 49 1020.5
20260502193057 74 340 3.0 16.0 0.00 0.00 0.00 51 1024.1
20260502193054 74 14 3.0 16.0 0.00 0.00 0.00 51 1020.4
20260502191600 73 44 6.0 16.0 0.00 0.00 0.00 51 1024.1
20260502191543 73 35 5.0 16.0 0.00 0.00 0.00 50 1020.5
20260502190053 73 46 9.0 15.0 0.00 0.00 0.00 49 1024.3
20260502190044 73 54 7.0 15.0 0.00 0.00 0.00 50 1020.8